When you browse on this site, cookies collect data to enhance your experience and personalize the content and advertising you see.
Visit our Privacy Policy to learn more. By continuing to use the site, you agree to this use of cookies and data.
  • In Hungary
  • List of Countries
  • For 7 days
  • Water Temperature
  • Satellite Maps
  • Weather Map
  • News
  • Weather Widgets
  • user-avatar
    Login

    Hourly Weather Kaliszki

    Today, 16 November, Friday

    Time Temperature Precipitation Wind Pressure Humidity
    00:00 +3°C° 0 mm 3 mps 770 mmHg 83%
    01:00 +4°C° 0 mm 2 mps 770 mmHg 81%
    02:00 +4°C° 0 mm 2 mps 770 mmHg 82%
    03:00 +2°C° 0 mm 3 mps 771 mmHg 83%
    04:00 +2°C° 0 mm 3 mps 771 mmHg 84%
    05:00 +1°C° 0 mm 3 mps 771 mmHg 86%
    06:00 +1°C° 0 mm 3 mps 771 mmHg 87%
    07:00 0°C° 0 mm 3 mps 771 mmHg 88%
    08:00 +1°C° 0 mm 3 mps 772 mmHg 84%
    09:00 +2°C° 0 mm 3 mps 772 mmHg 79%
    10:00 +3°C° 0 mm 4 mps 772 mmHg 75%
    11:00 +4°C° 0 mm 4 mps 772 mmHg 72%
    12:00 +4°C° 0 mm 4 mps 772 mmHg 70%
    13:00 +4°C° 0 mm 4 mps 773 mmHg 64%
    14:00 +4°C° 0 mm 3 mps 773 mmHg 67%
    15:00 +3°C° 0 mm 3 mps 773 mmHg 70%
    16:00 +3°C° 0 mm 3 mps 773 mmHg 73%
    17:00 +2°C° 0 mm 3 mps 773 mmHg 77%
    18:00 +2°C° 0 mm 3 mps 773 mmHg 80%
    19:00 +1°C° 0 mm 3 mps 773 mmHg 84%
    20:00 +1°C° 0 mm 3 mps 773 mmHg 86%
    21:00 +1°C° 0 mm 3 mps 773 mmHg 87%
    22:00 0°C° 0 mm 3 mps 773 mmHg 89%
    23:00 0°C° 0 mm 3 mps 774 mmHg 89%

    Tomorrow, 17 November, Saturday

    Time Temperature Precipitation Wind Pressure Humidity
    00:00 0°C° 0 mm 3 mps 774 mmHg 89%
    01:00 -1°C° 0 mm 3 mps 774 mmHg 89%
    02:00 -1°C° 0 mm 2 mps 774 mmHg 87%
    03:00 -1°C° 0 mm 2 mps 774 mmHg 85%
    04:00 -2°C° 0 mm 2 mps 774 mmHg 83%
    05:00 -2°C° 0 mm 2 mps 774 mmHg 80%
    06:00 -2°C° 0 mm 2 mps 774 mmHg 77%
    07:00 -2°C° 0 mm 2 mps 774 mmHg 73%
    08:00 -1°C° 0 mm 3 mps 774 mmHg 66%
    09:00 0°C° 0 mm 3 mps 774 mmHg 58%
    10:00 +1°C° 0 mm 3 mps 774 mmHg 50%
    11:00 +2°C° 0 mm 3 mps 773 mmHg 47%
    12:00 +3°C° 0 mm 3 mps 773 mmHg 43%
    13:00 +4°C° 0 mm 3 mps 773 mmHg 40%
    14:00 +3°C° 0 mm 3 mps 772 mmHg 43%
    15:00 +2°C° 0 mm 3 mps 772 mmHg 47%
    16:00 +2°C° 0 mm 2 mps 772 mmHg 51%
    17:00 +1°C° 0 mm 2 mps 772 mmHg 51%
    18:00 +1°C° 0 mm 2 mps 772 mmHg 52%
    19:00 +1°C° 0 mm 2 mps 771 mmHg 52%
    20:00 +1°C° 0 mm 2 mps 771 mmHg 52%
    21:00 +1°C° 0 mm 1 mps 771 mmHg 52%
    22:00 +1°C° 0 mm 1 mps 771 mmHg 52%
    23:00 +1°C° 0 mm 1 mps 771 mmHg 51%

    Day after tomorrow, 18 November, Sunday

    Time Temperature Precipitation Wind Pressure Humidity
    00:00 +1°C° 0 mm 1 mps 770 mmHg 51%
    01:00 0°C° 0 mm 0 mps 770 mmHg 50%
    02:00 +1°C° 0 mm 1 mps 769 mmHg 50%
    03:00 +1°C° 0 mm 1 mps 769 mmHg 49%
    04:00 +1°C° 0 mm 1 mps 768 mmHg 49%
    05:00 +1°C° 0 mm 1 mps 768 mmHg 50%
    06:00 -2°C° 0 mm 2 mps 767 mmHg 51%
    07:00 -2°C° 0 mm 2 mps 767 mmHg 52%
    08:00 +1°C° 0 mm 2 mps 766 mmHg 53%
    09:00 +1°C° 0 mm 3 mps 766 mmHg 55%
    10:00 +2°C° 0 mm 3 mps 766 mmHg 56%
    11:00 +2°C° 0 mm 3 mps 765 mmHg 63%
    12:00 +2°C° 0 mm 3 mps 764 mmHg 69%
    13:00 +2°C° 0 mm 3 mps 763 mmHg 75%
    14:00 +2°C° 0 mm 3 mps 763 mmHg 80%
    15:00 +2°C° 0 mm 3 mps 763 mmHg 86%
    16:00 +2°C° 0 mm 3 mps 762 mmHg 91%
    17:00 +2°C° 0.1 mm 3 mps 762 mmHg 91%
    18:00 +2°C° 0.1 mm 3 mps 762 mmHg 91%
    19:00 +1°C° 0.1 mm 4 mps 762 mmHg 91%
    20:00 +2°C° 0 mm 3 mps 761 mmHg 92%
    21:00 +2°C° 0 mm 3 mps 761 mmHg 92%
    22:00 +2°C° 0 mm 3 mps 761 mmHg 93%
    23:00 +1°C° 0.1 mm 4 mps 760 mmHg 92%

    19 November, Monday

    Time Temperature Precipitation Wind Pressure Humidity
    00:00 +1°C° 0.1 mm 4 mps 760 mmHg 92%
    01:00 +1°C° 0.1 mm 4 mps 760 mmHg 92%
    02:00 +1°C° 0.1 mm 4 mps 760 mmHg 91%
    03:00 +1°C° 0.1 mm 5 mps 759 mmHg 89%
    04:00 +1°C° 0.1 mm 5 mps 759 mmHg 88%
    05:00 +1°C° 0.1 mm 5 mps 759 mmHg 86%
    06:00 0°C° 0.1 mm 5 mps 759 mmHg 84%
    07:00 0°C° 0.1 mm 5 mps 759 mmHg 81%
    08:00 -1°C° 0.1 mm 6 mps 759 mmHg 80%
    09:00 +1°C° 0.1 mm 6 mps 759 mmHg 79%
    10:00 +1°C° 0.1 mm 6 mps 759 mmHg 78%
    11:00 +1°C° 0.1 mm 6 mps 759 mmHg 77%
    12:00 +1°C° 0.1 mm 6 mps 759 mmHg 77%
    13:00 +2°C° 0.1 mm 6 mps 759 mmHg 77%
    14:00 +2°C° 0 mm 5 mps 759 mmHg 78%
    15:00 +1°C° 0 mm 5 mps 759 mmHg 79%
    16:00 +1°C° 0 mm 5 mps 759 mmHg 80%
    17:00 +1°C° 0 mm 4 mps 759 mmHg 81%
    18:00 +1°C° 0 mm 4 mps 759 mmHg 83%
    19:00 +1°C° 0 mm 4 mps 759 mmHg 84%
    20:00 +1°C° 0 mm 4 mps 759 mmHg 86%
    21:00 0°C° 0 mm 4 mps 759 mmHg 88%
    22:00 +1°C° 0 mm 3 mps 759 mmHg 89%
    23:00 0°C° 0.1 mm 4 mps 759 mmHg 89%

    20 November, Tuesday

    Time Temperature Precipitation Wind Pressure Humidity
    00:00 0°C° 0.1 mm 4 mps 759 mmHg 88%
    01:00 0°C° 0.1 mm 4 mps 759 mmHg 88%
    02:00 0°C° 0 mm 4 mps 759 mmHg 88%
    03:00 0°C° 0 mm 4 mps 759 mmHg 88%
    04:00 -1°C° 0 mm 4 mps 758 mmHg 88%
    05:00 0°C° 0 mm 3 mps 758 mmHg 88%
    06:00 -1°C° 0 mm 3 mps 758 mmHg 89%
    07:00 -1°C° 0 mm 3 mps 758 mmHg 90%
    08:00 -2°C° 0 mm 4 mps 758 mmHg 85%
    09:00 -1°C° 0 mm 4 mps 758 mmHg 81%
    10:00 0°C° 0 mm 5 mps 758 mmHg 77%
    11:00 0°C° 0 mm 5 mps 758 mmHg 75%
    12:00 0°C° 0 mm 5 mps 757 mmHg 73%
    13:00 +1°C° 0 mm 5 mps 757 mmHg 71%
    14:00 0°C° 0 mm 4 mps 757 mmHg 73%
    15:00 0°C° 0 mm 4 mps 756 mmHg 74%
    16:00 -1°C° 0 mm 4 mps 756 mmHg 76%
    17:00 -1°C° 0 mm 4 mps 756 mmHg 78%
    18:00 -2°C° 0 mm 4 mps 756 mmHg 79%
    19:00 -2°C° 0 mm 4 mps 756 mmHg 81%
    20:00 -2°C° 0 mm 4 mps 756 mmHg 80%
    21:00 -2°C° 0 mm 5 mps 755 mmHg 80%
    22:00 -2°C° 0 mm 5 mps 755 mmHg 80%
    23:00 -2°C° 0 mm 5 mps 755 mmHg 80%

    21 November, Wednesday

    Time Temperature Precipitation Wind Pressure Humidity
    00:00 -2°C° 0 mm 5 mps 755 mmHg 80%
    01:00 -3°C° 0 mm 6 mps 754 mmHg 80%
    02:00 -3°C° 0.1 mm 6 mps 754 mmHg 81%
    03:00 -3°C° 0.1 mm 6 mps 754 mmHg 83%
    04:00 -3°C° 0.1 mm 7 mps 753 mmHg 84%
    05:00 -3°C° 0.2 mm 7 mps 753 mmHg 84%
    06:00 -2°C° 0.2 mm 7 mps 753 mmHg 85%
    07:00 -2°C° 0.2 mm 7 mps 753 mmHg 85%
    08:00 -2°C° 0.3 mm 7 mps 753 mmHg 85%
    09:00 -2°C° 0.3 mm 7 mps 754 mmHg 84%
    10:00 -1°C° 0.3 mm 8 mps 754 mmHg 84%
    11:00 -1°C° 0.2 mm 8 mps 754 mmHg 84%
    12:00 -1°C° 0.2 mm 8 mps 754 mmHg 84%
    13:00 -1°C° 0.2 mm 8 mps 754 mmHg 84%
    14:00 -1°C° 0.1 mm 7 mps 754 mmHg 85%
    15:00 -1°C° 0.1 mm 7 mps 754 mmHg 85%
    16:00 -1°C° 0.1 mm 7 mps 754 mmHg 85%
    17:00 -1°C° 0 mm 7 mps 754 mmHg 85%
    18:00 -1°C° 0 mm 7 mps 754 mmHg 85%
    19:00 -1°C° 0 mm 7 mps 755 mmHg 85%
    20:00 -1°C° 0 mm 7 mps 755 mmHg 85%
    21:00 -1°C° 0 mm 6 mps 755 mmHg 86%
    22:00 -1°C° 0 mm 6 mps 755 mmHg 86%
    23:00 -1°C° 0 mm 6 mps 755 mmHg 86%
    Show more